Voltar ao catálogo

SERT 2

AtivoCiênciaSSO
NORAD 4327·PAYLOAD·🇺🇸 United States

Lançado Feb 4, 1970 de Vandenberg Space Force Base

Loading…

Próximas Passagens (próximas 24 horas)

TLE

AtualizadoSource: Space-Track

Época: Sep 14, 2026, 07:14 UTC

1 04327U 70009A   26257.30183936  .00000018  00000-0  80520-4 0  9995
2 04327  99.2867 190.2385 0005670  49.9412 114.9195 13.58745809805502

Acompanhe SERT 2 em tempo real com AllMySat

Download on the App Store